Location: Hopville
(44.8032°N, 123.1329°W)
Time: 04:01:00
(UTC+00:00)

Cosmos 2219 Rocket - Pass Details

Date: 24 January 2021
Orbit: 828 x 846 km, 71.0° (Epoch: 26 February)

Event Time Altitude Azimuth Distance (km) Brightness Sun altitude
Exits shadow 12:57:32 29° 2° (N) 1,499 3.5 -28.6°
Drops below altitude 10° 13:00:20 10° 17° (NNE) 2,443 4.8 -28.1°
Sets 13:02:52 0° 23° (NNE) 3,381 5.6 -27.7°
